Wind_Speed
27 28 27 27 27 27 27 26 24 23 24 24 23 22 22 22 23 24 25 25 25 26 27 27 28 28 28 29 28 28 28 28 28 28 27 27 27 27
26 26 26 26 27 26 25 24 22 23 24 24 23 23 22 23 23 24 25 25 25 26 27 27 28 28 28 29 29 28 28 28 29 29 28 28 28 28
25 25 24 23 23 22 22 22 23 23 24 24 23 23 23 23 24 24 24 25 26 25 26 27 27 28 28 29 29 29 28 29 29 29 29 28 28 28
21 21 21 21 21 21 21 22 23 23 24 24 24 24 23 23 23 23 24 25 25 25 25 25 26 27 28 29 28 28 29 29 29 29 29 29 28 28
19 20 20 20 21 20 21 21 22 23 23 23 23 23 23 23 24 24 24 24 24 24 24 24 25 25 26 28 28 28 28 28 29 29 29 29 29 29
18 18 18 19 19 20 20 21 21 21 22 22 22 22 23 23 24 24 24 24 25 24 24 24 24 25 26 27 28 29 28 29 29 29 29 29 29 29
17 18 18 19 19 19 20 21 21 21 21 22 22 22 23 23 24 24 24 24 24 25 24 24 24 25 26 27 27 28 29 29 29 29 30 30 30 30
18 19 19 19 19 20 20 21 21 21 21 21 22 22 23 23 23 24 24 24 24 24 23 23 23 24 24 25 26 28 28 28 29 29 30 30 31 31
18 19 20 20 20 20 21 21 21 22 22 22 22 22 22 23 23 23 23 23 23 23 23 23 23 23 23 23 24 25 26 27 29 30 30 31 32 33
18 19 19 19 19 20 20 20 20 20 21 21 21 21 21 21 21 21 21 21 21 21 21 21 21 22 22 22 23 23 24 26 28 29 30 31 32 33
18 18 18 18 18 18 19 19 19 19 19 19 19 19 19 19 19 19 19 19 19 19 20 20 20 20 20 20 20 22 23 25 27 28 30 31 32 33
16 17 18 18 17 17 17 17 17 17 18 18 18 18 18 17 17 17 17 17 18 18 18 18 19 19 19 20 20 21 22 23 24 26 28 30 31 33
13 14 15 16 16 16 16 16 16 16 16 16 16 16 16 16 16 16 16 15 16 16 16 16 16 17 18 18 19 20 21 22 23 24 26 27 29 32
10 11 12 13 14 14 14 14 14 15 15 15 15 15 15 15 14 14 14 14 15 15 15 15 15 16 17 17 18 19 20 22 23 24 26 28 29 30
6 7 7 8 9 10 11 11 11 12 12 13 13 13 13 13 13 13 13 13 13 13 13 14 14 14 15 16 17 18 19 20 21 22 24 25 27 29
2 3 3 4 5 6 7 8 8 9 10 10 10 10 10 9 9 9 9 9 10 10 11 11 12 14 15 16 17 17 18 19 20 21 23 24 25 27
3 2 1 1 1 2 3 4 5 5 6 7 7 7 7 7 7 7 7 8 8 8 9 10 11 13 14 15 16 16 17 18 19 21 22 23 25 27
8 7 6 4 3 2 2 1 1 2 3 3 4 4 5 5 5 5 5 5 6 7 8 9 10 11 12 13 14 15 16 17 18 20 21 22 24 25
11 10 9 8 7 6 6 5 4 4 3 2 1 1 0 0 1 2 2 3 5 6 7 8 9 10 11 12 12 13 14 15 17 19 20 21 22 24
14 13 12 12 11 10 10 9 9 8 8 7 6 5 5 4 3 3 3 3 4 5 6 7 8 10 11 11 12 13 14 15 16 18 19 20 21 22
17 16 15 15 14 13 13 12 12 12 11 11 10 9 8 7 6 5 5 5 5 6 7 8 9 10 11 12 12 13 15 16 16 17 19 20 21 22
16 16 16 15 15 15 14 14 13 13 13 12 12 11 11 10 9 8 8 8 7 7 8 8 9 11 11 12 13 14 15 16 17 19 20 21 22 23
16 16 15 15 15 15 15 14 14 13 13 13 13 12 12 11 11 10 10 10 9 9 9 10 10 11 12 13 14 15 16 17 18 19 20 21 22 23
Wind_Direction
250 245 244 247 248 248 249 248 251 255 259 260 261 262 265 268 268 271 272 272 268 267 267 264 262 261 259 259 258 256 255 255 255 254 255 256 257 258
247 248 247 247 246 247 248 248 251 254 257 259 261 263 264 266 267 271 272 272 270 269 268 265 262 260 259 258 258 257 256 255 255 254 254 256 257 258
247 246 244 245 246 247 247 250 252 254 256 259 261 263 264 266 268 270 272 272 272 271 269 266 263 261 259 257 257 257 257 256 256 255 255 255 257 258
247 245 244 246 248 248 250 252 253 255 257 259 262 263 264 266 268 269 271 272 272 271 270 267 263 262 261 258 257 257 257 257 256 256 255 255 256 257
249 248 249 248 248 250 252 254 255 256 258 260 262 263 264 266 268 268 270 271 269 269 269 267 264 263 261 258 257 258 258 257 256 255 256 255 255 256
252 252 252 250 250 252 254 255 256 257 259 261 263 265 266 267 268 266 268 269 268 269 271 268 265 263 261 258 258 258 258 258 257 256 256 256 256 257
255 254 253 253 253 254 256 258 259 260 262 263 265 266 267 268 267 266 267 268 267 266 268 268 266 264 261 259 258 258 258 258 257 256 256 256 257 258
256 255 256 256 255 256 258 260 262 263 264 264 266 267 267 268 268 267 268 268 266 265 266 268 266 265 262 261 260 260 259 258 256 256 256 257 258 259
256 256 256 256 256 258 261 263 264 264 264 265 266 266 267 268 269 269 269 268 267 267 267 268 265 264 264 261 262 261 259 257 255 256 257 258 259 260
259 258 257 257 257 260 260 262 264 265 265 266 267 267 268 269 269 269 269 269 268 268 267 267 268 265 264 264 263 261 259 259 257 255 257 259 260 261
260 258 256 257 257 258 260 262 263 264 266 267 267 268 269 269 269 269 269 270 269 268 270 270 272 271 267 267 266 264 261 262 261 261 262 262 262 264
260 258 256 256 256 258 261 265 266 265 266 268 267 267 267 267 267 269 270 271 270 272 273 273 273 273 272 271 272 271 268 266 265 266 266 265 265 266
259 259 258 256 256 258 261 265 266 266 265 266 266 266 265 265 266 269 271 272 273 275 276 276 277 276 276 278 277 274 274 274 272 272 272 272 271 269
262 261 259 256 255 258 260 262 263 264 264 263 265 266 266 267 269 270 272 274 276 278 277 278 279 280 281 284 284 282 280 281 280 279 278 277 276 276
266 263 259 255 255 257 259 261 263 264 266 264 265 267 265 267 270 270 273 274 275 277 279 281 283 285 286 288 289 289 289 289 287 285 284 282 281 281
290 274 266 261 263 265 264 263 264 266 267 267 267 268 266 269 269 268 271 278 281 283 284 287 292 293 294 294 294 294 294 295 294 293 291 290 289 288
49 46 28 335 292 277 270 267 269 269 269 269 266 264 265 268 270 273 278 286 289 289 292 297 300 302 303 303 303 301 300 300 300 299 298 297 296 295
61 63 65 66 62 50 31 356 328 312 297 285 276 271 268 269 272 274 280 290 298 304 308 312 315 315 315 313 311 310 309 308 308 307 306 305 305 304
62 62 61 60 60 57 55 53 49 43 40 36 26 29 20 256 268 294 306 312 317 321 324 326 329 330 331 330 328 326 324 323 321 320 318 315 313 312
62 63 63 63 63 62 62 62 63 62 63 66 68 71 74 71 60 41 20 3 352 348 348 350 351 351 352 350 348 345 341 337 335 333 332 330 328 326
61 62 63 63 64 64 65 66 66 66 67 69 69 68 67 63 58 51 41 32 26 22 18 13 9 6 4 0 356 353 350 348 345 344 343 342 340 337
59 60 61 61 62 63 64 64 64 66 66 66 65 65 64 61 59 55 50 45 38 32 26 19 14 12 9 6 3 360 357 356 354 351 349 347 345 343
57 58 58 58 59 59 60 61 62 62 62 61 60 60 60 59 58 55 51 47 43 38 33 27 22 17 14 12 9 6 3 0 357 355 354 352 351 350
Height
5817 5818 5820 5822 5824 5826 5828 5829 5831 5832 5833 5834 5835 5835 5835 5835 5834 5834 5834 5833 5833 5833 5833 5833 5833 5833 5834 5835 5835 5836 5836 5837 5838 5839 5840 5841 5841 5842
5810 5811 5813 5815 5817 5819 5821 5822 5824 5826 5827 5827 5828 5829 5829 5829 5828 5828 5827 5827 5826 5826 5826 5826 5826 5827 5827 5828 5828 5829 5830 5830 5831 5832 5833 5834 5835 5835
5803 5805 5807 5809 5811 5813 5814 5816 5818 5820 5820 5821 5821 5822 5822 5822 5822 5822 5821 5821 5820 5820 5819 5819 5819 5820 5820 5821 5822 5822 5823 5824 5824 5825 5826 5827 5828 5828
5798 5799 5801 5803 5805 5807 5808 5810 5812 5813 5814 5814 5815 5815 5816 5816 5816 5816 5815 5814 5814 5813 5813 5813 5813 5813 5813 5814 5815 5815 5816 5817 5818 5818 5819 5820 5821 5821
5793 5794 5796 5797 5799 5801 5802 5804 5805 5806 5807 5808 5808 5809 5809 5809 5809 5809 5809 5808 5808 5807 5806 5806 5806 5806 5806 5807 5808 5808 5809 5810 5811 5811 5812 5813 5814 5814
5788 5789 5790 5792 5793 5795 5796 5798 5799 5800 5800 5801 5801 5802 5802 5802 5802 5802 5802 5802 5802 5801 5800 5800 5799 5799 5799 5800 5801 5801 5802 5803 5803 5804 5805 5806 5807 5807
5783 5784 5785 5786 5788 5789 5790 5791 5792 5793 5794 5794 5795 5795 5795 5796 5796 5796 5796 5795 5795 5795 5794 5793 5793 5792 5792 5793 5793 5794 5794 5795 5796 5797 5798 5799 5799 5800
5779 5779 5780 5781 5782 5783 5785 5786 5786 5787 5788 5788 5788 5789 5789 5789 5789 5789 5789 5789 5789 5789 5788 5787 5786 5786 5785 5785 5786 5786 5787 5788 5789 5790 5790 5791 5792 5792
5773 5774 5774 5776 5777 5778 5779 5780 5780 5781 5782 5782 5782 5783 5783 5783 5783 5783 5783 5783 5782 5782 5782 5781 5780 5780 5779 5779 5779 5779 5780 5780 5781 5782 5783 5783 5784 5785
5768 5769 5770 5770 5771 5772 5773 5774 5775 5775 5776 5776 5777 5777 5777 5777 5777 5777 5777 5777 5776 5776 5776 5775 5775 5774 5774 5773 5773 5773 5773 5773 5774 5774 5775 5776 5776 5776
5763 5764 5764 5765 5766 5767 5768 5769 5770 5770 5770 5771 5771 5771 5771 5772 5772 5772 5772 5772 5771 5771 5770 5770 5769 5769 5768 5768 5768 5767 5767 5767 5767 5767 5767 5768 5768 5767
5758 5759 5760 5761 5762 5762 5763 5764 5764 5765 5766 5766 5766 5766 5767 5767 5767 5767 5767 5767 5766 5766 5766 5765 5765 5764 5764 5763 5762 5762 5761 5760 5760 5760 5760 5759 5759 5759
5754 5755 5755 5756 5757 5758 5758 5759 5759 5760 5761 5761 5761 5762 5762 5762 5762 5762 5762 5762 5762 5762 5761 5761 5760 5760 5759 5758 5757 5757 5756 5755 5754 5753 5752 5752 5751 5750
5751 5751 5751 5752 5753 5754 5754 5755 5755 5756 5756 5757 5757 5757 5758 5758 5758 5758 5758 5758 5758 5758 5757 5757 5756 5755 5755 5753 5752 5751 5750 5749 5748 5746 5745 5744 5743 5742
5748 5748 5749 5749 5749 5750 5751 5751 5752 5752 5753 5753 5753 5754 5754 5754 5754 5754 5754 5754 5754 5754 5753 5753 5752 5751 5750 5749 5748 5746 5745 5743 5742 5740 5739 5737 5735 5733
5747 5747 5747 5747 5748 5748 5748 5749 5749 5749 5749 5750 5750 5750 5751 5751 5751 5751 5751 5751 5751 5750 5750 5749 5748 5747 5746 5744 5743 5741 5740 5738 5736 5734 5732 5730 5727 5725
5748 5748 5747 5747 5747 5747 5747 5747 5747 5747 5747 5747 5747 5747 5748 5748 5748 5748 5749 5748 5748 5748 5747 5746 5745 5743 5742 5740 5738 5736 5734 5732 5730 5728 5725 5723 5720 5717
5749 5749 5748 5748 5747 5747 5746 5746 5746 5746 5745 5745 5745 5745 5746 5746 5746 5746 5746 5746 5746 5745 5744 5743 5742 5740 5738 5736 5734 5732 5730 5728 5725 5722 5719 5716 5713 5709
5752 5751 5750 5749 5749 5748 5747 5746 5746 5745 5744 5744 5744 5744 5744 5744 5744 5745 5745 5744 5744 5743 5742 5741 5739 5737 5735 5732 5730 5728 5726 5723 5720 5717 5714 5710 5707 5703
5756 5754 5753 5752 5751 5750 5749 5748 5747 5746 5745 5745 5744 5744 5744 5744 5744 5744 5743 5743 5743 5742 5741 5739 5737 5735 5733 5731 5728 5725 5723 5720 5717 5713 5709 5705 5701 5697
5760 5759 5757 5756 5755 5753 5752 5751 5750 5749 5748 5747 5746 5746 5745 5745 5744 5744 5743 5743 5742 5741 5740 5738 5737 5735 5732 5730 5727 5724 5721 5718 5714 5710 5706 5702 5698 5693
5765 5763 5762 5760 5759 5757 5756 5755 5754 5752 5752 5750 5749 5748 5747 5746 5745 5745 5744 5743 5742 5741 5740 5738 5736 5734 5732 5729 5726 5723 5720 5716 5712 5708 5704 5699 5695 5689
5769 5767 5766 5764 5763 5761 5760 5758 5757 5756 5755 5754 5752 5751 5750 5749 5748 5747 5745 5744 5743 5742 5740 5739 5737 5734 5732 5729 5726 5723 5719 5715 5711 5707 5703 5697 5692 5687